Hourly Data Report for September 28, 2017

All times are specified in Local Standard Time (LST). Add 1 hour to adjust for Daylight Saving Time where and when it is observed.

ST. STEPHEN
NEW BRUNSWICK

45°12'36.600" N
67°15'10.300" W
26.10 m
8104935
71607
WSS

Download Data

Hourly Data (September 2017)
Hourly Data Report for September 28, 2017
Temp Definition
°C
Dew Point Temp Definition
°C
Rel Hum Definition
%
Wind Dir Definition
10's deg

Wind Spd Definition
km/h
Visibility Definition
km
Stn Press Definition
kPa
Hmdx Definition


Wind Chill Definition


Weather Definition


TIME
00:00 21.7 19.8 89 24 6   100.20 29   LegendNANA
01:00 21.6 20.0 90 17 5   100.14 29   LegendNANA
02:00 21.7 20.1 91 17 7   100.05 29   LegendNANA
03:00 22.6 20.5 88 22 9   99.99 31   LegendNANA
04:00 22.9 20.6 87 23 9   100.02 31   LegendNANA
05:00 22.4 20.2 87 28 9   100.06 30   LegendNANA
06:00 19.6 17.6 88 28 5   99.97     LegendNANA
07:00 18.6 17.2 92 24 1   100.03     LegendNANA
08:00 19.8 15.9 78 28 11   100.04     LegendNANA
09:00 20.3 12.7 62 32 14   100.09     LegendNANA
10:00 18.5 11.6 64 30 11   100.11     LegendNANA
11:00 19.4 10.8 58 28 12   100.12     LegendNANA
12:00 20.0 11.5 58 28 15   100.11     LegendNANA
13:00 20.9 11.5 55 32 11   100.08     LegendNANA
14:00 21.8 9.1 44 30 13   100.07     LegendNANA
15:00 21.7 8.2 42 31 13   100.10     LegendNANA
16:00 20.5 7.6 43 31 16   100.14     LegendNANA
17:00 18.4 6.9 47 30 15   100.21     LegendNANA
18:00 16.0 6.8 54 32 11   100.31     LegendNANA
19:00 13.7 5.7 59 31 8   100.37     LegendNANA
20:00 12.4 5.7 63 29 8   100.45     LegendNANA
21:00 11.4 5.2 66 30 7   100.52     LegendNANA
22:00 11.0 4.0 62 32 10   100.58     LegendNANA
23:00 10.3 3.6 63 31 9   100.61     LegendNANA

Notes on Data Quality.

Legend

  • E = Estimated
  • M = Missing
  • NA = Not Available
  • ‡ = Partner data that is not subject to review by the National Climate Archives
Date modified: